Weather Roundup
Issued by NWS

Home | Current Version | Previous Version | Graphics & Text | Print | Product List | Glossary Off
Versions: 1 2 3 4 5 6 7 8 9 10 11 12 13 14 15 16 17 18 19 20 21 22 23 24 25 26 27 28 29 30 31 32 33 34 35 36 37 38 39 40 41 42 43 44 45 46 47 48 49 50

000
NZUS93 KARX 271810
HRRWXR

CURRENT HOURLY OBSERVATIONS ACROSS
MUCH OF THE UPPER MISSISSIPPI VALLEY
NATIONAL WEATHER SERVICE LA CROSSE WI
100 PM CDT FRI MAY 27 2016


...SOUTHEAST MINNESOTA...


CITY           SKY/WX    TMP DP  RH WIND       PRES   REMARKS
ROCHESTER      LGT RAIN  65  64  97 E7        29.79F FOG
ROCHESTER/MAYO CLOUDY    65  64  96 CALM      29.80S
WINONA         RAIN      70  63  78 SE6       29.78F
AUSTIN         HVY RAIN  63  61  94 NE3       29.79F
ALBERT LEA     LGT RAIN  64  61  88 CALM      29.79F
DODGE CENTER   HVY RAIN  63  61  94 CALM      29.82R
PRESTON        CLOUDY    66  63  89 SE6       29.79F
OWATONNA       RAIN      64  61  88 CALM      29.80S VSB 1
FARIBAULT      CLOUDY    63  63 100 CALM      29.80S
$$

...ELSEWHERE IN MINNESOTA...


CITY           SKY/WX    TMP DP  RH WIND       PRES   REMARKS
MINNEAPOLIS    LGT RAIN  64  60  87 CALM      29.80F FOG
INTNL FALLS    CLOUDY    68  53  58 S10G24    29.86R
DULUTH         LGT RAIN  61  56  83 NE6       29.90S
RED WING       LGT RAIN  68  63  83 SE3       29.78F
REDWOOD FALLS  CLOUDY    72  58  61 SE10      29.75F
MANKATO        CLOUDY    66  61  82 S13       29.78F
WORTHINGTON    PTSUNNY   68  57  68 CALM      29.77F
FAIRMONT       CLOUDY    66  59  77 SE8       29.77S
$$

...SOUTHWEST WISCONSIN...


CITY           SKY/WX    TMP DP  RH WIND       PRES   REMARKS
LA CROSSE      CLOUDY    75  62  64 SE10      29.77F
PRAIRIE DU CHI CLOUDY    72  62  71 SE8       29.80S
BOSCOBEL       CLOUDY    75  64  68 VRB5      29.81F
LONE ROCK      CLOUDY    74  64  71 SE5       29.82F
PLATTEVILLE    CLOUDY    74  67  80 S16       29.83S
FORT MC COY    CLOUDY    74  62  66 S9        29.82S
CAMP DOUGLAS   CLOUDY    76  73  90 SE8G17    29.82F
MAUSTON-NEW LI CLOUDY    75  64  67 S7        29.82F
VIROQUA        CLOUDY    71  62  74 SE12      29.82F
WIS DELLS      PTSUNNY   74  63  69 S6        29.84S
$$

...ELSEWHERE IN WISCONSIN...


CITY           SKY/WX    TMP DP  RH WIND       PRES   REMARKS
MILWAUKEE      PTSUNNY   78  69  73 SE12      29.87F
MADISON        PTSUNNY   76  64  66 S7        29.83F
GREEN BAY      CLOUDY    67  66  97 NE8       29.88F FOG
EAU CLAIRE     CLOUDY    73  60  63 E12       29.79F
BLACK RVR FLS  CLOUDY    74  58  58 S5        29.80F
MEDFORD        CLOUDY    70  60  71 E8        29.85F
WAUSAU         CLOUDY    72  61  68 E8        29.84F
WIS RAPIDS     CLOUDY    77  59  53 SE13      29.85F
MARSHFIELD     CLOUDY    76  60  57 SE17      29.83F
RICE LAKE      CLOUDY    67  59  74 NE6       29.84F
$$

...NORTHEAST IOWA...


CITY           SKY/WX    TMP DP  RH WIND       PRES   REMARKS
WATERLOO       CLOUDY    70  64  81 SE9       29.75F
DUBUQUE        CLOUDY    71  65  81 S13       29.82F
DECORAH        CLOUDY    70  66  88 VRB6G13   29.78F
MASON CITY     RAIN      64  62  93 NE7       29.79F FOG
CHARLES CITY   CLOUDY    68  66  94 SE9       29.77F
OELWEIN        CLOUDY    70  66  88 SE8       29.79F
$$

...ELSEWHERE IN IOWA...


CITY           SKY/WX    TMP DP  RH WIND       PRES   REMARKS
DES MOINES     CLOUDY    69  64  84 CALM      29.75S
IOWA CITY      MOSUNNY   76  67  73 SE12G20   29.77F
FORT DODGE     CLOUDY    68  61  77 SE6       29.77S
MARSHALLTOWN   CLOUDY    69  67  93 S9        29.75R
CEDAR RAPIDS   CLOUDY    77  69  76 SE12G22   29.75F
$$

...NORTHERN ILLINOIS...


CITY           SKY/WX    TMP DP  RH WIND       PRES   REMARKS
CHICAGO-OHARE  PTSUNNY   80  65  59 S9        29.87F
CHICAGO-MIDWAY PTSUNNY   83  62  49 S13G26    29.87F
MOLINE         CLOUDY    76  66  71 S12       29.80F
ROCKFORD       CLOUDY    79  64  60 SE16      29.85F
PEORIA         CLOUDY    75  65  70 S18       29.84S
$$

NOTE: "FAIR" INDICATES FEW OR NO CLOUDS BELOW 12,000 FEET WITH NO
SIGNIFICANT WEATHER AND/OR OBSTRUCTIONS TO VISIBILITY. WIND
SPEEDS ARE IN MILES-PER-HOUR.




USA.gov is the U.S. government's official web portal to all federal, state and local government web resources and services.